Location: Freiburg+im+Breisgau
(48.0359°N, 7.8195°E)
Time: 12:54:28
(UTC+02:00)

ISS - Pass Details

Date: 10 February 2018
Orbit: 403 x 408 km, 51.6° (Epoch: 22 September)

Event Time Altitude Azimuth Distance (km) Brightness Sun altitude
Rises 18:39:33 0° 292° (WNW) 2,323 1.1 -9.9°
Reaches altitude 10° 18:41:39 10° 287° (WNW) 1,461 0.1 -10.3°
Maximum altitude 18:44:51 52° 210° (SSW) 511 -3.1 -10.8°
Drops below altitude 10° 18:48:02 10° 133° (SE) 1,461 -1.4 -11.3°
Enters shadow 18:48:26 - 132° (SE) 1,617 -1.2 -11.4°
